Meteor 1-28 Rocket - Orbit

View from above orbital plane
View from above orbital plane
View from above satellite
View from above satellite

Ground track
Ground track

The orbit data is extracted from the following two-line orbital elements,

1 10114U 77057B   13145.15040662  .00002380  00000-0  14323-3 0  9776
2 10114 097.3246 017.4629 0017517 087.5366 272.7870 15.11620417958918
Epoch (UTC): 25 May 2013 03:36:35
Eccentricity: 0.0017517
inclination: 97.3246°
perigee height: 519 km
apogee height: 543 km
right ascension of ascending node: 17.4629°
argument of perigee: 87.5366°
revolutions per day: 15.11620417
mean anomaly at epoch: 272.7870°
orbit number at epoch: 95891

The dashed part of the orbit path shows where the satellite is in the earth's shadow,  

Developed and maintained by Chris Peat, Heavens-Above GmbH. Please read the updated FAQ before sending e-mail. Imprint. DLR